341  
ASUS41 KOKX 092004  
RWROKX  
 
REGIONAL WEATHER ROUNDUP  
NATIONAL WEATHER SERVICE NEW YORK NY  
300 PM EST TUE FEB 09 2016  
 
NOTE: "FAIR" INDICATES FEW OR NO CLOUDS BELOW 12,000 FEET WITH NO  
SIGNIFICANT WEATHER AND/OR S TO VISIBILITY
.  
 
NYZ071-072-176-178-NJZ106-104-092100-  
NEW YORK CITY METRO AREA  
 
 
CITY SKY/WX TMP DP RH WIND PRES REMARKS
 
CENTRAL PARK CLOUDY 35 22 58 CALM 29.58F  
LAGUARDIA APRT CLOUDY 34 23 64 E3 29.57S  
KENNEDY INTL PTSUNNY 35 23 61 N8 29.58F WCI 29  
NEWARK/LIBERTY CLOUDY 35 26 69 CALM 29.57F  
BRNX BOT. GARD N/A 36 23 60 NW3 29.58F  
TETERBORO CLOUDY 35 21 56 CALM 29.56F  

 
 
NYZ177-179-078>081-092100-  
LONG ISLAND NEW YORK  
 
CITY SKY/WX TMP DP RH WIND PRES REMARKS
 
FARMINGDALE PTSUNNY 33 23 66 NE5 29.58R WCI 29  
ISLIP PTSUNNY 33 24 69 N7 29.56S WCI 27  
SHIRLEY CLOUDY 32 24 72 NW6 29.57S WCI 26  
RIVERHEAD N/A 34 23 64 W2 29.56R  
WESTHAMPTON CLOUDY 31 24 75 N8 29.58S WCI 23  
EAST HAMPTON CLOUDY 31 24 76 N9 29.55F WCI 23  
MONTAUK POINT N/A 33 26 75 N6 29.56F WCI 28  

 
 
NYZ052-065-067-092100-  
HUDSON VALLEY  
 
CITY SKY/WX TMP DP RH WIND PRES REMARKS
 
WHITE PLAINS PTSUNNY 30 22 72 SE3 29.55S  
NEWBURGH MOSUNNY 30 23 74 VRB5 29.55S WCI 25  
MONTGOMERY CLOUDY 32 22 66 S5 29.54S WCI 27  
POUGHKEEPSIE CLOUDY 33 20 58 CALM 29.56S  
ALBANY PTSUNNY 32 19 58 CALM 29.55F  

 
 
NJZ001-105-106-008-010-013-015-019>022-104-092100-  
NEW JERSEY  
 
CITY SKY/WX TMP DP RH WIND PRES REMARKS
 
NEWARK/LIBERTY CLOUDY 35 26 69 CALM 29.57F  
TETERBORO CLOUDY 35 21 56 CALM 29.56F  
CALDWELL CLOUDY 33 22 63 CALM 29.57F  
MORRISTOWN NOT AVBL  
SOMERVILLE CLOUDY 34 25 69 CALM 29.55F  
SUSSEX CLOUDY 33 23 66 CALM 29.54S  
ANDOVER N/A 33 23 66 CALM 29.54S  
TRENTON LGT SNOW 33 28 81 E6 29.56R WCI 28  
MILLVILLE LGT RAIN 38 35 89 E7 29.54S WCI 33  
ATLANTIC CITY CLOUDY 38 25 59 E14 29.54S WCI 30  
WRIGHTSTOWN NOT AVBL  
TOMS RIVER CLOUDY 34 27 75 NE8 29.57R WCI 27  
BELMAR CLOUDY 34 21 60 N8 29.56S WCI 27  

 
 
PAZ047>061-062-071-092100-  
EASTERN PENNSYLVANIA  
 
CITY SKY/WX TMP DP RH WIND PRES REMARKS
 
PHILADELPHIA LGT SNOW 36 31 82 NE8 29.56R WCI 30  
ALLENTOWN LGT SNOW 34 26 72 E3 29.54S  
SCRANTON CLOUDY 35 26 69 CALM 29.49S  

 
 
CTZ002-004>006-009-010-012-RIZ004-006-007-MAZ004-011-015-092100-  
SOUTHERN NEW ENGLAND  
IN CT  
 
CITY SKY/WX TMP DP RH WIND PRES REMARKS
 
BRADLEY INTL PTSUNNY 31 18 58 CALM 29.57S  
HARTFORD MOSUNNY 30 19 63 NW5 29.58F WCI 25  
DANBURY PTSUNNY 32 18 56 CALM 29.56S  
WTRBRY/OXFORD NOT AVBL  
BRIDGEPORT PTSUNNY 31 22 69 SE6 29.58S WCI 25  
MERIDEN SUNNY 31 19 61 NW3 29.57F  
NEW HAVEN MOSUNNY 32 21 64 VRB5 29.57F WCI 27  
CHESTER CLOUDY 32 23 69 NE3 29.55F  
GROTON PTSUNNY 33 24 69 N9 29.56F WCI 25  
WILLIMANTIC CLOUDY 32 19 58 CALM 29.57F  
 
IN RI  
 
CITY SKY/WX TMP DP RH WIND PRES REMARKS
 
PROVIDENCE PTSUNNY 30 20 66 N8 29.58S WCI 22  
BLOCK ISLAND MOSUNNY 32 25 74 N10 29.54S WCI 24  
WESTERLY CLOUDY 33 22 63 N7 29.56F WCI 27  
 
IN MA  
 
CITY SKY/WX TMP DP RH WIND PRES REMARKS
 
BOSTON CLOUDY 28 19 69 CALM 29.59  
WORCESTER CLOUDY 26 17 68 CALM 29.52F  
WESTFIELD CLOUDY 28 17 63 CALM 29.57S  
PROVINCETOWN MIX PCPN 32 26 78 N12 29.57R WCI 23  
NANTUCKET CLOUDY 34 27 75 N12 29.53S WCI 25  

 
 
ANZ330-335-338-340-345-350-353-355-092100-  
COASTAL MARINE OBSERVATIONS  
 
 
STATION/POSITION TIME SKY/WX TEMP WIND PRES VSBY WAVE
 
AIR SEA DIR/SP/G HT/PER  
(UTC) (F) (DEG/KT/KT) (MB) (MI) (FT/S)  
NY HARB ENTRANCE 1850 32 43 30/ 10/ 12 1001.1 5/13  
4S FIRE IS NOT AVBL  
20S FIRE ISLAND 1850 34 44 30/ 14/ 16 1000.4 6/11  
GREAT SOUTH BAY NOT AVBL  
23SW MTP 1950 33 45 10/ 14/ 17 1000.1 6/11  
HUDSON CANYON 1850 40 49 998.5 8/13  
KINGS POINT 1900 33 38 70/ 2/ 4 1001.1  
EXECUTION ROCKS NOT AVBL  
CENTRAL LI SOUND 1900 31 40/ 2/ 4 N/A 0  
EASTERN LI SOUND 1900 32 42 20/ 6/ 10 N/A  
ROBBINS REEF 1900 32 310/ 5/ 6 1000.8  

 
 
>>>>>>>>>>>>>>>>>>>>>>>>>>>> KEY <<<<<<<<<<<<<<<<<<<<<<<<<<<  
> <  
> SKY/WX - SKY CONDITION/PRESENT WEATHER <  
> TMP - TEMPERATURE IN FAHRENHEIT <  
> DP - DEWPOINT IN FAHRENHEIT <  
> RH - RELATIVE HUMIDITY IN PERCENT <  
> WIND - DIRECTION AND SPEED IN MPH <  
> PRES - MEAN SEA LEVEL PRESSURE IN INCHES OF HG <  
> WCI - WIND CHILL INDEX <  
> VSB - VISIBILITY IN MILES <  
> HX - HEAT INDEX <  
> TC - TEMPERATURE IN CELSIUS <  
> VRB - VARIABLE WIND DIRECTION <  
> <  
>>>>>>>>>>>>>>>>>>>>>>>>>>>> KEY <<<<<<<<<<<<<<<<<<<<<<<<<<<  
 
 
 
CLICK HERE TO GO TO PREVIOUS BULLETINS.

The Nexlab NY Page
The Nexlab NJ Page
The Nexlab CT Page Main Text Page